Regional Weather Roundup
Issued by NWS

Home | Current Version | Previous Version | Text Only | Print | Product List | Glossary On
Versions: 1 2 3 4 5 6 7 8 9 10 11 12 13 14 15 16 17 18 19 20 21 22 23 24 25 26 27 28 29 30 31 32 33 34 35 36 37 38 39 40 41 42 43 44 45 46 47 48 49 50
000
ASUS43 KLSX 221157
RWRMO

WEATHER SUMMARY FOR MISSOURI
NATIONAL WEATHER SERVICE SPRINGFIELD MO
700 AM CDT TUE AUG 22 2017

NOTE: "FAIR" INDICATES FEW OR NO CLOUDS BELOW 12,000 FEET WITH NO
       SIGNIFICANT WEATHER AND/OR OBSTRUCTIONS TO VISIBILITY.
       CURRENT SKY AND/OR WEATHER CONDITIONS ARE NOT AVAILABLE FOR
       CHILLICOTHE AND FARMINGTON.

MOZ001>031-035>038-043-044-053-054-221300-
...NORTHERN AND WESTERN MISSOURI...

CITY           SKY/WX    TMP DP  RH WIND       PRES   REMARKS
KANSAS CTY INT CLOUDY    65  64  97 W5        30.06R
6HR MIN TEMP:  65; 6HR MAX TEMP:  70; 6HR PCP:  2.07;

LEE`S SUMMIT   CLOUDY    66  66 100 MISG      30.06R
6HR MIN TEMP:  66; 6HR MAX TEMP:  70; 6HR PCP:  1.95;

ST JOSEPH      CLOUDY    66  66 100 NW3       30.07R
6HR MIN TEMP:  65; 6HR MAX TEMP:  70; 6HR PCP:  0.60;

CHILLICOTHE      N/A     68  68 100 VRB5      30.03R
6HR MIN TEMP:  67; 6HR MAX TEMP:  71; 6HR PCP:  0.39;


$$
MOZ066>068-077>081-088>096-101>105-221300-
...SOUTHWEST MISSOURI...

CITY           SKY/WX    TMP DP  RH WIND       PRES   REMARKS
SPRINGFIELD    TSTM      69  69 100 NW12G25   30.08R FOG
6HR MIN TEMP:  69; 6HR MAX TEMP:  78; 6HR PCP:  0.11;

JOPLIN         CLOUDY    76  70  82 NE21G32   30.10R
6HR MIN TEMP:  74; 6HR MAX TEMP:  82; 6HR PCP: TRACE;

BRANSON        MOCLDY    75  70  83 W9        30.04R

$$
MOZ032>034-039>042-045>050-055>058-069>072-221300-
...CENTRAL MISSOURI...

CITY           SKY/WX    TMP DP  RH WIND       PRES   REMARKS
COLUMBIA       CLOUDY    70  70 100 SE8       29.96F
JEFFERSON CITY LGT RAIN  71  71 100 SE8       29.95F
6HR MIN TEMP:  71; 6HR MAX TEMP:  81; 6HR PCP:  1.11;

ROLLA          HVY RAIN  69  69 100 N5        30.02S FOG
6HR MIN TEMP:  69; 6HR MAX TEMP:  77; 6HR PCP:  0.42;

SEDALIA        LGT RAIN  70  70 100 W7        30.01R
6HR MIN TEMP:  70; 6HR MAX TEMP:  73; 6HR PCP:  2.42;

WARRENSBURG    LGT RAIN  64  64 100 W5        30.02R

$$
MOZ051-052-059>065-221300-
...EAST CENTRAL MISSOURI...

CITY           SKY/WX    TMP DP  RH WIND       PRES   REMARKS
ST LOUIS INTL  LGT RAIN  71  70  96 E5        29.97F
6HR MIN TEMP:  70; 6HR MAX TEMP:  84; 6HR PCP:  0.16;


$$
MOZ072>076-082>087-097>100-106>115-221300-
...SOUTH CENTRAL AND SOUTHEAST MISSOURI...

CITY           SKY/WX    TMP DP  RH WIND       PRES   REMARKS
CAPE GIRARDEAU MOCLDY    76  73  91 SW6       29.98S
6HR MIN TEMP:  73; 6HR MAX TEMP:  78;

POPLAR BLUFF   CLOUDY    75  75 100 S5        29.98S FOG
6HR MIN TEMP:  75; 6HR MAX TEMP:  77;

WEST PLAINS    CLOUDY    74  72  93 SW7       30.03R
6HR MIN TEMP:  74; 6HR MAX TEMP:  78;


$$



USA.gov is the U.S. government's official web portal to all federal, state and local government web resources and services.